Regional Weather Roundup
Issued by NWS Mobile, AL

Home | Current Version | Previous Version | Text Only | Print | Product List | Glossary On
Versions: 1 2 3 4 5 6 7 8 9 10 11 12 13 14 15 16 17 18 19 20 21 22 23 24 25 26 27 28 29 30 31 32 33 34 35 36 37 38 39 40 41 42 43 44 45 46 47 48 49 50
000
ASUS44 KMOB 181717
RWRMOB
REGIONAL WEATHER ROUNDUP
NATIONAL WEATHER SERVICE MOBILE AL
1200 PM CDT SAT APR 18 2015

ALZ061>064-181800-
COASTAL ALABAMA


CITY           SKY/WX    TMP DP  RH WIND       PRES   REMARKS
MOBILE REG APT CLOUDY    72  70  93 S10       29.96F FOG
BROOKLEY FIELD CLOUDY    70  67  90 SE3       29.96F
GULF SHORES    RAIN      72  72  98 CALM      29.97F

$$

ALZ051>060-181800-
INTERIOR SOUTHWEST AND SOUTH CENTRAL ALABAMA


CITY           SKY/WX    TMP DP  RH WIND       PRES   REMARKS
ANDALUSIA/OPP  NOT AVBL
EVERGREEN      CLOUDY    69  67  93 S5        29.97F
FLORALA        CLOUDY    70  67  90 S3        29.99F
GREENVILLE     CLOUDY    69  64  84 S3        29.97F

$$

FLZ001>006-181800-
WESTERN FLORIDA PANHANDLE


CITY           SKY/WX    TMP DP  RH WIND       PRES   REMARKS
CRESTVIEW      CLOUDY    73  70  90 SW3       29.98F
DESTIN         CLOUDY    77  71  82 CALM      29.96F
DUKE FIELD     PTSUNNY   73  72  94 VRB2      29.96F
MARY ESTHER    PTSUNNY   77  64  63 SW7       29.96F
MILTON         CLOUDY    73  70  90 CALM      29.96F
PENSACOLA      CLOUDY    73  70  90 W6        29.97F FOG
NAS PENSACOLA  CLOUDY    74  72  93 W3        29.97S
VALPARAISO     CLOUDY    76  71  84 W1        29.96F

$$

...MARINE OBSERVATIONS...

STATION/POSITION TIME  SKY/WX   TEMP    WIND        PRES    VSBY
                                AIR SEA DIR/SP/G
                 (UTC)          (F)     (DEG/KT/KT) (MB)    (MI)
PASCAGOULA       1600            71        CALM     1015.3R
GRAND BAY        1545            70      80/  2     1017.0
PETIT BOIS ISL   1600            74      60/  3/  3 1015.7R
E DAUPHIN ISLAND 1700            72     160/  2/  2 1014.5F
MIDDLE BAY LIGHT 1600            66     350/  5     1015.2S
USCG MOBILE BAY  1600            68 72   CALM  /  1 1014.5F
STATE DOCKS      1600            69 70              1015.2F
MEAHER PARK      1600            69        CALM     1015.6F
FORT MORGAN      1600            72     340/  4/  4 1015.5R
12 S ORANGE BCH  1650            73 73  230/  6/  6 1014.6R
WVE H/P(F/S)=  2/ 5

PENSACOLA BAY    1600            76 74   CALM  /  2 1015.3F
64 S DAUPHIN ISL 1650            72 75   90/ 10/ 12 1015.5R
WVE H/P(F/S)=  2/ 6

67 S FORT MORGAN 1630            72                 1014.9S
115 SE PENSACOLA 1650            77 77  190/  8/  8 1015.6R
WVE H/P(F/S)=  2/ 8

MID GULF/42001   1650            81 81  160/ 17/ 19 1013.4F
WVE H/P(F/S)=  4/ 5

EAST GULF/42003  1650            80 80  150/  6/  8 1015.5F
WVE H/P(F/S)=  2/ 7


$$

...NEARBY LOCATIONS

CITY           SKY/WX    TMP DP  RH WIND       PRES   REMARKS
GULFPORT       LGT RAIN  73  70  90 SE13      29.92F
BILOXI         CLOUDY    73  73 100 SE8       29.93F
PASCAGOULA     CLOUDY    72  71  97 S5        29.95F
HATTIESBURG    CLOUDY    69  67  93 E7        29.92F
LAUREL         CLOUDY    66 N/A N/A E6        29.94F
MERIDIAN       CLOUDY    67  62  84 SE5       29.96F
MERIDIAN NAS   CLOUDY    69  62  78 VRB3      29.96F
MONTGOMERY     CLOUDY    72  63  73 VRB3      29.98F
MAXWELL AFB    CLOUDY    71  64  77 VRB2      29.97F
TROY           CLOUDY    68  64  87 CALM      29.99F
FORT RUCKER    CLOUDY    69  64  84 CALM      29.97F
DALEVILLE      CLOUDY    69  65  87 VRB2      29.97F
DOTHAN         CLOUDY    72  66  81 NW3       30.01F

$$

...OTHER SURROUNDING LOCATIONS...

CITY           SKY/WX    TMP DP  RH WIND       PRES   REMARKS
BIRMINGHAM     CLOUDY    68  63  84 SE8       30.00F
TUSCALOOSA     CLOUDY    67  61  81 SE8       29.97F
COLUMBUS GA    CLOUDY    71  64  78 CALM      29.99F
PANAMA CITY    NOT AVBL
TALLAHASSEE    CLOUDY    82  69  64 W5        29.97F
BATON ROUGE    CLOUDY    73  67  81 SE12      29.88F
NEW ORLEANS    CLOUDY    74  66  76 E7        29.90F
SLIDELL        CLOUDY    74  70  87 SE7       29.91F
JACKSON        CLOUDY    69  64  84 E8        29.93F
MCCOMB         PTSUNNY   73  68  84 S7        29.93R

$$

...SURROUNDING MARINE OBSERVATIONS...

STATION/POSITION TIME  SKY/WX   TEMP    WIND        PRES    VSBY
                                AIR SEA DIR/SP/G
                 (UTC)          (F)     (DEG/KT/KT) (MB)    (MI)
WAVELAND         1600            71 73  120/ 12/ 13 1014.0F
PASCAGOULA RGN A 1600            72      CALM  /  2 1015.0F
PASCAGOULA PORT  1600               75                N/A
GRAND ISLE       1600            71 75   80/ 11/ 13 1013.9F
SOUTHWEST PASS   1700            69      40/ 17/ 19 1014.7F
PILOT STATION E  1600            69 63   40/  6/  7 1015.5R
SHELL BEACH      1600            72 75   80/ 11/ 12 1013.3F
PANAMA CITY      1600            76 75  200/  4/  5 1014.7F
APALACHICOLA     1600            77 74  230/  7/  9 1015.2F
TYNDALL TOWER C  1700            75     210/ 11/ 11 1014.8F
S APLCHCLA/42036 1650            77 77  200/  8/  8 1015.7F
WVE H/P(F/S)=  1/ 4


$$



USA.gov is the U.S. government's official web portal to all federal, state and local government web resources and services.